CW1950 Weather Reports


Display with metric or nautical units.
time (UTC)temp
F
wind
direction
speed
MPH
gust
MPH
rain 1hr
in
rain 24hr
in
rain mn
in
humidity
%
barometer
mb
20260507150004 56 339 2.0 5.0 0.00 0.00 0.00 92 1015.3
20260507140503 56 314 1.0 3.0 0.00 0.00 0.00 90 1015.2
20260507140004 56 334 2.0 3.0 0.00 0.00 0.00 90 1015.2
20260507130503 56 353 1.0 3.0 0.00 0.00 0.00 90 1014.7
20260507130004 55 329 1.0 3.0 0.00 0.00 0.00 90 1014.6
20260507120005 55 325 1.0 3.0 0.00 0.00 0.00 84 1014.7
20260507110004 56 346 1.0 3.0 0.00 0.00 0.00 84 1014.7
20260507100504 57 310 1.0 1.0 0.00 0.00 0.00 84 1014.6
20260507100005 57 315 1.0 3.0 0.00 0.00 0.00 84 1014.6
20260507090504 58 309 2.0 3.0 0.00 0.00 0.00 84 1014.9
20260507090005 58 310 1.0 3.0 0.00 0.00 0.00 84 1014.9
20260507080504 60 308 1.0 2.0 0.00 0.00 0.00 84 1015.1
20260507070504 60 319 1.0 1.0 0.00 0.00 0.00 84 1015.2
20260507070009 60 315 1.0 2.0 0.00 0.00 0.00 84 1015.2
20260507060503 61 357 1.0 3.0 0.00 0.00 0.00 80 1015.1
20260507060003 61 17 1.0 5.0 0.00 0.00 0.00 80 1015.0
20260507050503 63 21 1.0 3.0 0.00 0.00 0.00 79 1015.0
20260507050005 64 0 0.0 5.0 0.00 0.00 0.00 78 1015.0
20260507040503 67 152 0.0 2.0 0.00 0.00 0.00 75 1014.0
20260507030504 71 82 2.0 5.0 0.00 0.00 0.00 67 1013.4
20260507030003 71 15 1.0 7.0 0.00 0.00 0.00 66 1013.2
20260507020504 76 12 2.0 6.0 0.00 0.00 0.00 56 1012.7
20260507020004 77 79 2.0 8.0 0.00 0.00 0.00 56 1012.7
20260507010504 80 252 3.0 6.0 0.00 0.00 0.00 52 1012.6
20260507010004 80 247 3.0 9.0 0.00 0.00 0.00 51 1012.6
20260507000504 80 244 2.0 7.0 0.00 0.00 0.00 52 1012.4
20260507000005 80 269 2.0 8.0 0.00 0.00 0.00 52 1012.5
20260506230503 80 243 3.0 9.0 0.00 0.00 0.00 49 1012.8
20260506230004 80 240 3.0 12.0 0.00 0.00 0.00 51 1012.9
20260506220503 80 207 4.0 10.0 0.00 0.00 0.00 57 1013.6
20260506210004 78 257 4.0 10.0 0.00 0.00 0.00 56 1014.3
20260506200504 75 259 5.0 8.0 0.00 0.00 0.00 66 1014.9
20260506200004 75 205 3.0 9.0 0.00 0.00 0.00 63 1015.0
20260506190502 72 261 3.0 7.0 0.00 0.00 0.00 65 1015.4
20260506190004 71 220 3.0 9.0 0.00 0.00 0.00 65 1015.4
20260506180503 69 245 3.0 7.0 0.00 0.00 0.00 70 1015.7
20260506170502 65 268 2.0 6.0 0.00 0.00 0.00 76 1016.0
20260506170003 65 221 3.0 7.0 0.00 0.00 0.00 76 1015.9
20260506160502 62 354 1.0 3.0 0.00 0.00 0.00 81 1016.1
20260506160003 62 314 1.0 3.0 0.00 0.00 0.00 82 1016.2
20260506150503 58 7 1.0 3.0 0.00 0.00 0.00 86 1016.4